DW5656 Weather Reports


time (UTC)temp
F
wind
direction
speed
knots
gust
knots
rain 1hr
in
rain 24hr
in
rain mn
in
humidity
%
barometer
mb
20260906224232 85 217 2.6 5.2 0.00 0.00 0.00 50 1019.4
20260906223332 86 203 0.9 6.1 0.00 0.00 0.00 49 1019.4
20260906222432 86 236 1.7 3.5 0.00 0.00 0.00 48 1019.3
20260906221532 87 223 2.6 5.2 0.00 0.00 0.00 47 1019.2
20260906220632 87 235 2.6 6.1 0.00 0.00 0.00 46 1019.1
20260906215732 88 229 2.6 7.0 0.00 0.00 0.00 44 1019.3
20260906214832 89 245 2.6 6.1 0.00 0.00 0.00 42 1019.3
20260906213932 90 248 4.3 9.6 0.00 0.00 0.00 40 1019.3
20260906213032 90 244 5.2 9.6 0.00 0.00 0.00 40 1019.4
20260906212132 90 243 4.3 10.4 0.00 0.00 0.00 39 1019.4
20260906211232 90 259 3.5 11.3 0.00 0.00 0.00 39 1019.4
20260906210332 91 261 3.5 8.7 0.00 0.00 0.00 39 1019.2
20260906205432 91 269 4.3 8.7 0.00 0.00 0.00 39 1019.1
20260906204532 91 274 4.3 8.7 0.00 0.00 0.00 40 1019.0
20260906203632 91 273 4.3 9.6 0.00 0.00 0.00 40 1019.0
20260906202732 91 272 4.3 10.4 0.00 0.00 0.00 40 1018.9
20260906201853 91 250 4.3 10.4 0.00 0.00 0.00 40 1018.6
20260906200953 92 250 5.2 8.7 0.00 0.00 0.00 40 1018.5
20260906200031 92 248 6.1 10.4 0.00 0.00 0.00 39 1018.1
20260906195153 93 246 5.2 9.6 0.00 0.00 0.00 38 1018.0
20260906194231 94 245 5.2 11.3 0.00 0.00 0.00 37 1017.7
20260906193353 94 242 4.3 9.6 0.00 0.00 0.00 37 1017.6
20260906192431 95 234 4.3 7.8 0.00 0.00 0.00 36 1017.4
20260906191531 96 244 4.3 10.4 0.00 0.00 0.00 36 1017.2
20260906190631 96 252 4.3 10.4 0.00 0.00 0.00 35 1017.1
20260906185731 97 250 3.5 9.6 0.00 0.00 0.00 35 1016.9
20260906184831 98 255 3.5 7.0 0.00 0.00 0.00 34 1016.8
20260906183931 98 248 3.5 8.7 0.00 0.00 0.00 33 1016.8
20260906183031 99 241 3.5 6.1 0.00 0.00 0.00 30 1016.7
20260906182131 99 228 2.6 8.7 0.00 0.00 0.00 28 1016.6
20260906181252 100 230 2.6 4.3 0.00 0.00 0.00 27 1016.6
20260906180331 100 235 3.5 6.1 0.00 0.00 0.00 27 1016.6
20260906175431 101 235 3.5 7.0 0.00 0.00 0.00 26 1016.6
20260906174552 101 233 2.6 7.8 0.00 0.00 0.00 25 1016.6
20260906173631 101 234 3.5 7.0 0.00 0.00 0.00 25 1016.7
20260906172731 102 245 3.5 7.0 0.00 0.00 0.00 24 1016.7
20260906171831 102 238 3.5 7.0 0.00 0.00 0.00 23 1016.6
20260906170931 102 240 3.5 6.1 0.00 0.00 0.00 23 1016.7
20260906170031 102 243 3.5 7.0 0.00 0.00 0.00 24 1016.6
20260906165131 102 247 3.5 8.7 0.00 0.00 0.00 24 1016.7
20260906164231 102 224 3.5 7.0 0.00 0.00 0.00 24 1016.6
20260906163352 102 227 3.5 7.0 0.00 0.00 0.00 24 1016.7
20260906162431 102 222 4.3 10.4 0.00 0.00 0.00 24 1016.7
20260906161531 102 220 4.3 10.4 0.00 0.00 0.00 24 1016.7
20260906160631 102 212 4.3 9.6 0.00 0.00 0.00 25 1016.7
20260906155731 102 220 3.5 7.8 0.00 0.00 0.00 25 1016.7
20260906154831 102 219 4.3 7.8 0.00 0.00 0.00 26 1016.8
20260906153931 102 222 4.3 7.8 0.00 0.00 0.00 25 1016.8
20260906153052 103 222 4.3 7.8 0.00 0.00 0.00 25 1016.7
20260906152152 103 215 3.5 7.8 0.00 0.00 0.00 26 1016.8
20260906151231 104 224 2.6 7.0 0.00 0.00 0.00 25 1016.8
20260906150331 104 229 1.7 7.0 0.00 0.00 0.00 24 1016.8
20260906145431 104 323 1.7 3.5 0.00 0.00 0.00 24 1017.0
20260906144531 103 294 2.6 4.3 0.00 0.00 0.00 24 1017.1
20260906143631 103 227 2.6 6.1 0.00 0.00 0.00 24 1017.1
20260906142752 103 215 2.6 6.1 0.00 0.00 0.00 24 1017.2
20260906141831 103 242 2.6 6.1 0.00 0.00 0.00 24 1017.3
20260906140930 103 249 2.6 5.2 0.00 0.00 0.00 25 1017.4
20260906140030 102 248 3.5 6.1 0.00 0.00 0.00 25 1017.5
20260906135130 102 266 3.5 8.7 0.00 0.00 0.00 26 1017.6
20260906134231 102 253 3.5 7.0 0.00 0.00 0.00 26 1017.6
20260906133330 102 263 2.6 7.0 0.00 0.00 0.00 26 1017.7
20260906132430 101 246 2.6 6.1 0.00 0.00 0.00 26 1017.7
20260906131530 102 227 2.6 7.8 0.00 0.00 0.00 26 1017.9
20260906130630 101 129 1.7 6.1 0.00 0.00 0.00 27 1017.9
20260906125751 102 176 1.7 4.3 0.00 0.00 0.00 26 1018.0
20260906124830 100 359 2.6 4.3 0.00 0.00 0.00 27 1018.1
20260906123930 100 37 1.7 8.7 0.00 0.00 0.00 27 1018.2
20260906123030 100 37 1.7 4.3 0.00 0.00 0.00 28 1018.3
20260906122130 99 107 2.6 7.8 0.00 0.00 0.00 28 1018.4
20260906121230 99 152 1.7 7.0 0.00 0.00 0.00 28 1018.5
20260906120330 98 321 1.7 3.5 0.00 0.00 0.00 29 1018.6
20260906115430 97 29 2.6 5.2 0.00 0.00 0.00 29 1018.6
20260906114530 97 77 2.6 6.1 0.00 0.00 0.00 29 1018.8
20260906113630 97 57 2.6 7.0 0.00 0.00 0.00 29 1018.9
20260906112730 97 69 1.7 6.1 0.00 0.00 0.00 29 1018.9
20260906111830 96 113 2.6 3.5 0.00 0.00 0.00 30 1019.0
20260906110930 95 85 3.5 7.0 0.00 0.00 0.00 31 1019.0
20260906110030 94 55 2.6 8.7 0.00 0.00 0.00 32 1019.1
20260906105130 94 356 2.6 4.3 0.00 0.00 0.00 33 1019.1
20260906104230 94 52 1.7 6.1 0.00 0.00 0.00 33 1019.3
20260906103331 94 18 0.9 4.3 0.00 0.00 0.00 33 1019.3
20260906102430 93 39 0.9 3.5 0.00 0.00 0.00 34 1019.4
20260906101530 92 44 0.9 3.5 0.00 0.00 0.00 35 1019.5
20260906100630 91 69 1.7 3.5 0.00 0.00 0.00 36 1019.4
20260906095751 90 111 2.6 6.1 0.00 0.00 0.00 37 1019.4
20260906094830 89 61 1.7 5.2 0.00 0.00 0.00 37 1019.5
20260906093951 89 91 1.7 3.5 0.00 0.00 0.00 38 1019.5
20260906093030 88 79 1.7 5.2 0.00 0.00 0.00 38 1019.5
20260906092130 87 84 1.7 5.2 0.00 0.00 0.00 39 1019.5
20260906091230 86 60 2.6 4.3 0.00 0.00 0.00 40 1019.3
20260906090330 85 72 2.6 6.1 0.00 0.00 0.00 42 1019.4
20260906085430 85 61 3.5 7.0 0.00 0.00 0.00 43 1019.4
20260906084530 84 50 3.5 7.8 0.00 0.00 0.00 44 1019.4
20260906083630 83 30 3.5 7.0 0.00 0.00 0.00 46 1019.3
20260906082730 82 36 4.3 9.6 0.00 0.00 0.00 46 1019.3
20260906081829 82 44 4.3 8.7 0.00 0.00 0.00 46 1019.1
20260906080929 81 45 4.3 8.7 0.00 0.00 0.00 48 1019.2
20260906080029 80 42 2.6 8.7 0.00 0.02 0.00 48 1019.2
20260906075151 80 68 3.5 7.0 0.00 0.03 0.00 50 1019.2
20260906074230 79 65 3.5 7.0 0.00 0.03 0.00 50 1019.2
20260906073330 78 52 3.5 6.1 0.00 0.03 0.00 51 1019.3
20260906072429 78 48 3.5 7.8 0.00 0.03 0.00 52 1019.4
20260906071550 78 55 4.3 8.7 0.00 0.04 0.00 53 1019.2
20260906070629 78 58 4.3 8.7 0.00 0.04 0.00 53 1019.1
20260906065750 78 61 3.5 9.6 0.00 0.04 0.00 54 1018.9
20260906064850 77 48 3.5 7.0 0.00 0.04 0.00 55 1018.8
20260906063929 77 39 3.5 7.8 0.00 0.04 0.00 56 1018.7
20260906063029 77 42 3.5 5.2 0.00 0.04 0.00 57 1018.7
20260906062129 77 51 4.3 7.8 0.00 0.04 0.00 58 1018.5
20260906061229 76 39 3.5 7.8 0.00 0.04 0.00 59 1018.6
20260906060329 76 52 2.6 7.0 0.00 0.04 0.00 63 1018.6
20260906055429 76 67 2.6 5.2 0.00 0.04 0.00 62 1018.4
20260906054529 77 60 3.5 7.8 0.00 0.04 0.00 62 1018.3
20260906053629 77 54 3.5 7.0 0.00 0.04 0.00 63 1018.2
20260906052750 77 49 3.5 7.0 0.00 0.04 0.00 63 1018.2
20260906051829 77 50 2.6 7.0 0.00 0.04 0.00 63 1018.3
20260906050950 78 57 1.7 3.5 0.00 0.04 0.00 60 1018.3
20260906050029 78 57 1.7 5.2 0.00 0.04 0.00 59 1018.3
20260906045129 77 16 1.7 4.3 0.00 0.04 0.00 58 1018.2
20260906044229 77 32 1.7 3.5 0.00 0.04 0.00 59 1018.2
20260906043350 77 31 1.7 3.5 0.00 0.04 0.00 57 1018.3
20260906042450 78 53 2.6 4.3 0.00 0.04 0.00 56 1018.2
20260906041529 78 62 3.5 6.1 0.00 0.04 0.00 55 1018.2
20260906040629 79 34 2.6 4.3 0.00 0.04 0.00 54 1018.3
20260906035729 79 13 2.6 4.3 0.00 0.04 0.00 54 1018.5
20260906034850 79 12 2.6 5.2 0.00 0.04 0.00 54 1018.5
20260906033929 80 19 3.5 7.8 0.00 0.04 0.00 54 1018.5
20260906033029 80 32 3.5 7.8 0.00 0.04 0.00 54 1018.4
20260906032129 80 19 3.5 7.0 0.00 0.04 0.00 54 1018.4
20260906031229 80 27 2.6 7.8 0.00 0.04 0.00 52 1018.4
20260906030329 81 351 2.6 7.0 0.00 0.04 0.00 51 1018.3
20260906025429 81 335 2.6 4.3 0.00 0.04 0.00 51 1018.3
20260906024550 82 355 1.7 4.3 0.00 0.04 0.00 50 1018.2
20260906023629 82 24 1.7 3.5 0.00 0.04 0.00 49 1018.3
20260906022749 82 8 1.7 3.5 0.00 0.04 0.00 49 1018.3
20260906021828 82 346 1.7 3.5 0.00 0.04 0.00 50 1018.3
20260906020928 82 319 0.9 3.5 0.00 0.04 0.00 51 1018.3
20260906020049 82 298 0.9 3.5 0.00 0.04 0.00 54 1018.4
20260906015128 82 254 0.0 1.7 0.00 0.04 0.00 59 1018.3
20260906014249 81 254 0.0 0.9 0.00 0.04 0.00 61 1018.3
20260906013328 81 0 0.0 0.0 0.00 0.04 0.00 62 1018.4
20260906012428 81 254 0.0 0.9 0.00 0.04 0.00 61 1018.4
20260906011549 81 254 0.9 1.7 0.00 0.04 0.00 62 1018.4
20260906010628 81 254 0.9 2.6 0.00 0.04 0.00 61 1018.5
20260906005728 82 254 0.9 0.9 0.00 0.04 0.00 60 1018.6
20260906004828 82 255 2.6 3.5 0.00 0.04 0.00 59 1018.5
20260906003949 84 284 0.9 5.2 0.00 0.04 0.00 56 1018.5
20260906003028 84 341 0.0 0.9 0.00 0.04 0.00 47 1018.4
20260906002128 84 341 0.0 1.7 0.00 0.04 0.00 47 1018.2
20260906001249 85 341 0.9 1.7 0.00 0.04 0.00 46 1018.4
20260906000349 85 341 1.7 2.6 0.00 0.04 0.00 47 1018.5
20260905235449 85 349 1.7 3.5 0.00 0.04 0.00 46 1018.4
20260905234528 85 358 0.9 3.5 0.00 0.04 0.00 47 1018.4
20260905233628 86 350 0.9 2.6 0.00 0.04 0.00 47 1018.5
20260905232728 86 354 1.7 2.6 0.00 0.04 0.00 47 1018.5
20260905231828 86 355 1.7 2.6 0.00 0.04 0.00 46 1018.5
20260905230949 86 354 0.9 2.6 0.00 0.04 0.00 46 1018.4
20260905230028 86 350 0.9 2.6 0.00 0.04 0.00 47 1018.5
20260905225128 86 350 0.9 1.7 0.00 0.04 0.00 48 1018.4